Flag for Australia Weather past 2 weeks in Hobart, Tasmania, Australia

Now
50 °F

Passing clouds.


Feels Like: 49 °F
Forecast: 41 / 68 °F
Wind: 3 mph from Southeast

Location: Hobart Airport

Current Time: Oct 20, 2014 at 11:05:31 PM

Latest Report: Oct 20, 2014 at 10:00 PM


Visibility: N/A

Pressure: 30.57 "Hg

Humidity: 62%

Dew point: 37 °F

Location of HobartLocation

Historic Weather in Hobart — Graph

°F

Hobart temperature yesterday

Maximum temperature yesterday: 66 °F (at 9:30 AM)
Minimum temperature yesterday: 46 °F (at 10:30 PM)
Average temperature yesterday: 57 °F

Past Weeks' High & Low Weather Summary

 TemperatureHumidityPressure
High73 °F (Oct 12, 2:00 PM)94% (Oct 14, 11:30 PM)30.57 "Hg (Oct 14, 11:30 PM)
Low37 °F (Oct 14, 6:00 AM)25% (Oct 12, 6:00 PM)29.00 "Hg (Oct 7, 2:30 AM)
Average54 °F60%29.96 "Hg
* Reported Oct 5 10:00 PM — Oct 20 10:00 PM, Hobart, Weather by CustomWeather, © 2014

Note: Actual official high and low records may vary slightly from our data, if they occured in-between our weather recording intervals... More about our weather records

Advertising

Hobart weather history for previous 24 hours

 ConditionsComfort  
Time TempWeatherWind HumidityBarometerVisibility
10:00 PM
Oct 20
50 °FPassing clouds.3 mph62%30.57 "HgN/A
9:30 PM50 °FPassing clouds.6 mph67%30.57 "HgN/A
9:00 PM52 °FPassing clouds.8 mph58%30.57 "HgN/A
8:30 PM52 °FPassing clouds.9 mph58%30.57 "HgN/A
8:00 PM52 °FPassing clouds.13 mph58%30.54 "HgN/A
7:30 PM52 °FScattered clouds.13 mph58%30.54 "HgN/A
7:00 PM52 °FPassing clouds.14 mph54%30.54 "HgN/A
6:30 PM52 °FPassing clouds.14 mph54%30.54 "HgN/A
6:00 PM54 °FPassing clouds.15 mph51%30.51 "HgN/A
5:30 PM54 °FPassing clouds.15 mph51%30.51 "HgN/A
5:00 PM54 °FPassing clouds.16 mph51%30.51 "HgN/A
4:30 PM55 °FPassing clouds.15 mph47%30.51 "HgN/A
4:00 PM54 °FPassing clouds.15 mph47%30.51 "HgN/A
2:00 PM55 °FPassing clouds.12 mph44%30.51 "HgN/A
1:30 PM55 °FPassing clouds.14 mph41%30.51 "HgN/A
1:00 PM55 °FPassing clouds.14 mph38%30.51 "HgN/A
12:30 PM55 °FPassing clouds.12 mph38%30.54 "HgN/A
12:00 PM55 °FPassing clouds.8 mph33%30.54 "HgN/A
11:30 AM54 °FPassing clouds.10 mph35%30.54 "HgN/A
11:00 AM54 °FPassing clouds.13 mph35%30.54 "HgN/A
10:30 AM54 °FPassing clouds.15 mph35%30.54 "HgN/A
10:00 AM52 °FScattered clouds.12 mph44%30.54 "HgN/A
9:30 AM52 °FPassing clouds.15 mph44%30.54 "HgN/A
9:00 AM50 °FPassing clouds.10 mph50%30.51 "HgN/A
8:30 AM48 °FScattered clouds.12 mph50%30.51 "HgN/A
8:00 AM46 °FScattered clouds.12 mph57%30.51 "HgN/A
7:30 AM45 °FPartly sunny.13 mph71%30.48 "HgN/A
7:00 AM41 °FScattered showers. Partly sunny.12 mph76%30.48 "HgN/A
6:30 AM41 °FScattered clouds.10 mph76%30.48 "HgN/A
6:00 AM41 °FPassing clouds.6 mph66%30.45 "HgN/A
5:30 AM43 °FPassing clouds.7 mph66%30.42 "HgN/A
5:00 AM45 °FPassing clouds.7 mph53%30.42 "HgN/A
4:30 AM45 °FPassing clouds.9 mph53%30.42 "HgN/A
4:00 AM45 °FPassing clouds.10 mph53%30.39 "HgN/A
3:30 AM45 °FPassing clouds.10 mph53%30.39 "HgN/A
3:00 AM43 °FPassing clouds.9 mph61%30.39 "HgN/A
2:30 AM45 °FPassing clouds.9 mph57%30.36 "HgN/A
2:00 AM45 °FPassing clouds.12 mph57%30.36 "HgN/A
1:30 AM43 °FPassing clouds.10 mph61%30.36 "HgN/A
1:00 AM43 °FPassing clouds.9 mph61%30.36 "HgN/A
12:30 AM43 °FPassing clouds.7 mph66%30.36 "HgN/A
12:00 AM45 °FPassing clouds.8 mph61%30.33 "HgN/A
11:30 PM
Oct 19
46 °FPassing clouds.10 mph57%30.33 "HgN/A
11:00 PM46 °FPassing clouds.15 mph53%30.30 "HgN/A
Weather by CustomWeather, © 2014

See weather overviewHow to use our weather pages